User: anonymous   Login
Location: Unspecified
(0.0000°N, 0.0000°E)
Time: 12:17:39
(UTC+02:00)
Language:

ATLAS V CENTAUR R/B - Orbit

View from above orbital plane
View from above orbital plane
View from above satellite
View from above satellite

Ground track
Ground track

The orbit data is extracted from the following two-line orbital elements,

1 27500U 02038B   16237.10572698  .00005018  00000-0  99090-3 0  9998
2 27500  17.8977 220.4698 6811714  16.0529 357.7051  2.89552233117216
Epoch (UTC): 24 August 2016 02:32:14
Eccentricity: 0.6811714
inclination: 17.8977°
perigee height: 251 km
apogee height: 28578 km
right ascension of ascending node: 220.4698°
argument of perigee: 16.0529°
revolutions per day: 2.89552233
mean anomaly at epoch: 357.7051°
orbit number at epoch: 11721

The dashed part of the orbit path shows where the satellite is in the earth's shadow,  

DLR